• Processing (Info)

  • MPEC 2017-Q132: 2017 QE18

    The following Minor Planet Electronic Circular may be linked-to from your own Web pages, but must not otherwise be redistributed electronically.

    A form allowing access to any MPEC is at the bottom of this page.


    Read MPEC 2017-Q131 Read MPEC 2017-Q133


    M.P.E.C. 2017-Q132                               Issued 2017 Aug. 28, 15:55 UT
    
         The Minor Planet Electronic Circulars contain information on unusual
             minor planets and routine data on comets.  They are published
        on behalf of Division F of the International Astronomical Union by the
              Minor Planet Center, Smithsonian Astrophysical Observatory,
                              Cambridge, MA 02138, U.S.A.
    
                 Prepared using the Tamkin Foundation Computer Network
    
                                  MPC@CFA.HARVARD.EDU
                URL https://www.minorplanetcenter.net/    ISSN 1523-6714
    
                                       2017 QE18
    
    Observations:
         K17Q18E  C2017 07 26.50727 22 36 19.462+05 39 42.16         22.2 wLEQ132F51
         K17Q18E  C2017 07 26.52001 22 36 18.889+05 39 47.04         22.6 wLEQ132F51
         K17Q18E  C2017 07 26.53276 22 36 18.322+05 39 51.72         22.7 wLEQ132F51
         K17Q18E  C2017 07 26.54550 22 36 17.759+05 39 56.51         22.7 wLEQ132F51
         K17Q18E  C2017 07 29.51467 22 34 03.227+05 57 33.47         23.1 wLEQ132F51
         K17Q18E  C2017 07 29.52665 22 34 02.621+05 57 37.51         23.0 wLEQ132F51
         K17Q18E  C2017 07 29.54178 22 34 01.821+05 57 42.76         22.7 wLEQ132F51
         K17Q18E  C2017 07 29.55505 22 34 01.140+05 57 47.35         23.5 wLEQ132F51
         K17Q18E* C2017 08 23.47173 22 00 36.490+07 09 49.51         21.8 wLEQ132F51
         K17Q18E  C2017 08 23.48370 22 00 35.141+07 09 49.01         21.5 wLEQ132F51
         K17Q18E  C2017 08 23.49561 22 00 33.792+07 09 48.48         21.5 wLEQ132F51
         K17Q18E  C2017 08 23.50757 22 00 32.449+07 09 47.96         21.3 wLEQ132F51
         K17Q18E  C2017 08 24.00457 21 59 38.04 +07 09 21.9          21.0 VSEQ132033
         K17Q18E  C2017 08 24.01426 21 59 36.96 +07 09 21.9          21.3 VSEQ132033
         K17Q18E  C2017 08 24.01910 21 59 36.38 +07 09 21.3          21.5 VSEQ132033
         K17Q18E  C2017 08 24.02395 21 59 35.88 +07 09 20.6          21.2 VSEQ132033
         K17Q18E KC2017 08 24.28967 21 59 06.51 +07 09 08.7          21.0 RqEQ132H36
         K17Q18E KC2017 08 24.30730 21 59 04.48 +07 09 08.4          21.5 RqEQ132H36
         K17Q18E KC2017 08 24.33375 21 59 01.60 +07 09 06.0          21.2 RqEQ132H36
         K17Q18E _C2017 08 24.43741121 58 50.242+07 09 03.94         21.0 GUEQ132568
         K17Q18E _C2017 08 24.43836321 58 50.134+07 09 03.89         21.0 GUEQ132568
         K17Q18E _C2017 08 24.43938821 58 50.016+07 09 03.82         21.1 GUEQ132568
         K17Q18E KC2017 08 26.23370421 55 28.37 +07 06 47.2          21.3 VuEQ132H21
         K17Q18E KC2017 08 26.24380421 55 27.16 +07 06 46.4          21.5 VuEQ132H21
         K17Q18E KC2017 08 26.25788121 55 25.55 +07 06 45.1          21.6 VuEQ132H21
         K17Q18E KC2017 08 27.88692 21 52 18.42 +07 03 45.5          21.5  QEQ132104
         K17Q18E KC2017 08 27.89248 21 52 17.78 +07 03 44.7                QEQ132104
         K17Q18E KC2017 08 27.90545 21 52 16.25 +07 03 43.9                QEQ132104
         K17Q18E  C2017 08 28.00296 21 52 04.65 +07 03 30.3          20.0 VSEQ132033
         K17Q18E  C2017 08 28.00687 21 52 04.18 +07 03 29.9          19.7 VSEQ132033
         K17Q18E KC2017 08 28.01359 21 52 03.50 +07 03 28.8                UEQ132J95
         K17Q18E  C2017 08 28.01471 21 52 03.25 +07 03 28.7          20.4 VSEQ132033
         K17Q18E KC2017 08 28.02883 21 52 01.64 +07 03 26.6          21.2 GUEQ132J95
         K17Q18E  C2017 08 28.05143 21 51 58.91 +07 03 23.9          20.0 VSEQ132033
         K17Q18E  C2017 08 28.05535 21 51 58.43 +07 03 23.6          19.5 VSEQ132033
         K17Q18E  C2017 08 28.05927 21 51 57.95 +07 03 22.5          19.5 VSEQ132033
         K17Q18E  C2017 08 28.06319 21 51 57.51 +07 03 22.2          19.7 VSEQ132033
         K17Q18E  C2017 08 28.06711 21 51 57.05 +07 03 21.7          20.0 VSEQ132033
         K17Q18E KC2017 08 28.24092 21 51 37.12 +07 03 00.8          20.8 RqEQ132734
         K17Q18E KC2017 08 28.24883 21 51 36.17 +07 03 00.1          21.4 RqEQ132734
         K17Q18E KC2017 08 28.25672 21 51 35.23 +07 02 59.3          21.2 RqEQ132734
         K17Q18E  C2017 08 28.29228421 51 31.05 +07 02 54.7          21.3 GUEQ132H01
         K17Q18E  C2017 08 28.30059321 51 30.05 +07 02 53.7          21.1 GUEQ132H01
         K17Q18E  C2017 08 28.30599021 51 29.41 +07 02 52.9          21.0 GUEQ132H01
         K17Q18E  C2017 08 28.31837021 51 27.92 +07 02 51.3          21.4 GUEQ132H01
         K17Q18E  C2017 08 28.34737 21 51 24.47 +07 02 47.2          21.3 VqEQ132I52
         K17Q18E  C2017 08 28.35117 21 51 24.02 +07 02 46.7          21.0 VqEQ132I52
         K17Q18E  C2017 08 28.35497 21 51 23.55 +07 02 45.6                qEQ132I52
         K17Q18E  C2017 08 28.35879 21 51 23.15 +07 02 44.4                qEQ132I52
    
    Observer details:
    033 Karl Schwarzschild Observatory, Tautenburg.  Observers C. Hoegner,
        B. Stecklum.  Measurer B. Stecklum.  1.34-m f/3 Schmidt + CCD.
    104 San Marcello Pistoiese.  Observers P. Bacci, M. Maestripieri.  Measurers
        P. Bacci, L. Tesi, G. Fagioli.  0.60-m f/4 reflector + CCD.
    568 Mauna Kea.  Observers R. J. Wainscoat, C. Crowder.  Measurers M. Micheli,
        R. J. Wainscoat.  3.6-m Canada-France-Hawaii Telescope + CCD.
    734 Farpoint Observatory.  Observer G. Hug.  0.69-m reflector + CCD.
    F51 Pan-STARRS 1, Haleakala.  Observers J. Bulger, T. Lowe, A. Schultz,
        M. Willman, T. Goggia.  Measurers K. Chambers, S. Chastel, L. Denneau,
        H. Flewelling, M. Huber, E. Lilly, E. Magnier, R. Wainscoat, C. Waters,
        R. Weryk.  1.8-m Ritchey-Chretien + CCD.
    H01 Magdalena Ridge Observatory, Socorro.  Observers W. H. Ryan, E. V. Ryan.
        Measurer W. H. Ryan.  2.4-m f/8.9 reflector + CCD.
    H21 Astronomical Research Observatory, Westfield.  Observer R. Holmes.
        Measurers S. Foglia, L. Buzzi, T. Linder, R. Holmes.  0.81-m f/4.0
        astrograph + CCD.
    H36 Sandlot Observatory, Scranton.  Observer G. Hug.  0.56-m reflector + CCD.
    I52 Steward Observatory, Mt. Lemmon Station.  Observer R. G. Matheny.
        Measurers E. J. Christensen, D. C. Fuls, A. R. Gibbs, A. D. Grauer,
        J. A. Johnson, R. A. Kowalski, S. M. Larson, G. J. Leonard, R. G. Matheny,
        R. L. Seaman, F. C. Shelly.  1.0-m reflector + CCD.
    J95 Great Shefford.  Observer P. Birtwhistle.  0.40-m f/6.0 Schmidt-Cassegrain
        + CCD.
    
    Orbital elements:
    2017 QE18                                                Earth MOID = 0.1632 AU
    Epoch 2017 Sept. 4.0 TT = JDT 2458000.5                 MPC
    M 312.01836              (2000.0)            P               Q
    n   0.35929474     Peri.  183.28246     -0.17299479     -0.96823363
    a   1.9596062      Node   276.73466     +0.90773915     -0.08560201
    e   0.6258892      Incl.   10.47458     +0.38220733     -0.23493813
    P   2.74           H   19.6           G   0.15           U   5
    Residuals in seconds of arc
    170726 F51  0.2+  0.1-    170824 H36  1.2-  0.1+    170828 033  0.1-  0.3+
    170726 F51  0.1+  0.1+    170824 H36  0.7+  0.8-    170828 033  0.4-  0.3-
    170726 F51  0.1+  0.1+    170824 568  0.1+  0.0     170828 033  0.0   0.1-
    170726 F51  0.1+  0.1+    170824 568  0.1+  0.0     170828 033  0.0   0.0
    170729 F51  0.2-  0.1-    170824 568  0.1+  0.1-    170828 734  0.1+  0.0
    170729 F51  0.0   0.1-    170826 H21  0.5+  0.3+    170828 734  0.1+  0.4+
    170729 F51  0.2-  0.1-    170826 H21  0.1+  0.4+    170828 734  0.2+  0.6+
    170729 F51  0.1-  0.0     170826 H21  0.6+  0.4+    170828 H01  0.1-  0.0
    170823 F51  0.1+  0.2+    170827 104  0.5-  0.3-    170828 H01  0.1-  0.2+
    170823 F51  0.1+  0.2+    170827 104  0.2-  0.4-    170828 H01  0.0   0.1+
    170823 F51  0.0   0.1+    170827 104  0.0   0.4+    170828 H01  0.1-  0.2+
    170823 F51  0.1+  0.1+    170828 033  0.0   0.1+    170828 I52  0.1-  0.2-
    170824 033  0.1-  0.3-    170828 033  0.1-  0.3+    170828 I52  0.0   0.2-
    170824 033  0.0   0.2+    170828 J95  0.3+  0.0     170828 I52  0.2-  0.8-
    170824 033  0.5-  0.1-    170828 033  0.1-  0.1+    170828 I52  0.6+  1.5-
    170824 033  0.2+  0.6-    170828 J95  0.4-  0.2-
    170824 H36  0.8-  0.5-    170828 033  0.1+  0.1+
    
    Ephemeris:
    2017 QE18                a,e,i = 1.96, 0.63, 10                  q = 0.7331
    Date    TT    R. A. (2000) Decl.     Delta      r     Elong.  Phase     V
    2017 07 29    22 34 28.1 +05 54 38   1.2171  2.1065   141.2    17.6    22.6
    ...
    2017 08 13    22 17 45.9 +06 59 11   1.0308  1.9967   155.3    12.2    21.9
    ...
    2017 08 21    22 05 01.1 +07 10 24   0.9517  1.9354   160.6    10.0    21.6
    ...
    2017 08 27    21 54 00.8 +07 05 35   0.9029  1.8881   161.4     9.8    21.4
    2017 08 28    21 52 05.2 +07 03 37   0.8956  1.8801   161.1    10.0    21.4
    2017 08 29    21 50 08.4 +07 01 19   0.8886  1.8721   160.8    10.2    21.4
    ...
    2017 09 04    21 38 08.6 +06 40 36   0.8520  1.8234   157.0    12.5    21.3
    ...
    2017 09 12    21 22 00.1 +05 55 45   0.8167  1.7567   148.8    17.3    21.3
    ...
    2017 09 27    20 55 32.1 +03 54 28   0.7866  1.6263   130.4    28.0    21.4
    
    A. U. Tomatic                (C) Copyright 2017 MPC           M.P.E.C. 2017-Q132
    

    Read MPEC 2017-Q131 Read MPEC 2017-Q133


    MPEC number:

    Enter an MPEC number in one of the following forms:

    • 1997-B01 (the full form)
    • J97B01 (the packed version of the full form)
    • B01 (the abbreviated form)